Regional Weather Roundup
Issued by NWS Wakefield, VA

Current Version | Previous Version | Text Only | Print | Product List | Glossary Off
Versions: 1 2 3 4 5 6 7 8 9 10 11 12 13 14 15 16 17 18 19 20 21 22 23 24 25 26 27 28 29 30 31 32 33 34 35 36 37 38 39 40 41 42 43 44 45 46 47 48 49 50

000
ASUS41 KAKQ 220615
RWRAKQ

REGIONAL WEATHER ROUNDUP
NATIONAL WEATHER SERVICE WAKEFIELD VA
200 AM EDT TUE OCT 22 2019

Note: "fair" indicates few or no clouds below 12,000 feet with no
significant weather and/or obstructions to visibility. * = Denotes
station may not report precipitation (e.g., rain,snow,etc.),
thunder or fog.

VAZ042-051-052>054-056-220700-
NORTHERN VIRGINIA

CITY           SKY/WX    TMP DP  RH WIND       PRES   REMARKS
WASH NATIONAL  CLOUDY    59  55  87 S6        30.08R
DULLES         CLOUDY    56  52  86 S7        30.06F
FORT BELVOIR   CLOUDY    58  53  86 CALM      30.07S
QUANTICO       CLOUDY    59  54  83 SW3       30.08S
FREDERICKSBRG* CLOUDY    57  56  97 S5        30.07S
STAFFORD*      CLOUDY    57  57 100 S3        30.12S
WARRENTON      CLOUDY    56  52  86 CALM      30.06F
CULPEPER*      CLOUDY    56  54  91 CALM      30.07F
MANASSAS*      CLOUDY    56  53  90 SE3       30.08S
LEESBURG*      CLOUDY    55  54  94 S7        30.07F
WINCHESTER     CLOUDY    55  52  88 SE6       30.00S
FRONT ROYAL*   CLOUDY    59  54  82 CALM      30.00S
LURAY*         CLOUDY    61  54  77 SW6       30.00F
$$

VAZ048-049-060>072-079>083-220700-
CENTRAL AND SOUTH CENTRAL VIRGINIA

CITY           SKY/WX    TMP DP  RH WIND       PRES   REMARKS
RICHMOND       CLOUDY    57  55  93 S7        30.07S
CHESTERFIELD*  CLOUDY    57  55  93 S8        30.08R
PETERSBURG*    LGT RAIN  57  55  92 S5        30.08S
HANOVER        CLOUDY    57  54  89 S6        30.09R
TAPPAHANNOCK*  CLOUDY    56  56 100 CALM      30.08F
QUINTON*       CLOUDY    56  56 100 S5        30.08S
CHARLOTTSVILLE CLOUDY    56  52  86 CALM      30.05F
GORDONSVILLE*  CLOUDY    55  55 100 S3        30.05F
ORANGE*        NOT AVBL
LOUISA*        CLOUDY    53  53  98 CALM      30.10F
BUMPASS*       CLOUDY    54  53  96 SW3       30.07F
FARMVILLE*     CLOUDY    56  56  97 S3        30.05F FOG
CREWE*         CLOUDY   N/A N/A N/A SE6       30.07F
FORT PICKETT*  CLOUDY   N/A N/A N/A S7        30.07F
CHASE CITY*    CLOUDY    59  57  94 SE8       30.05F
CLARKSVILLE*   CLOUDY    59  59 100 SE3       30.05F
SOUTH HILL*    CLOUDY    57  55  94 SE3       30.13F
LAWRENCEVILLE* CLOUDY    57  56  97 S3        30.09S
EMPORIA*       CLOUDY    57  56  98 CALM      30.10S
$$

VAZ088>098-220700-
SOUTHEAST VIRGINIA

CITY           SKY/WX    TMP DP  RH WIND       PRES   REMARKS
NORFOLK        CLOUDY    61  57  87 SW5       30.07S
VIRGINIA BEACH CLOUDY    60  56  86 SW5       30.06F
NORFOLK NAVAL  CLOUDY    60  58  92 CALM      30.09S
WEST POINT*    CLOUDY    58  57  97 CALM      30.09F
SALUDA*        CLOUDY    58  58 100 CALM      30.07F
NEWPORT NEWS   CLOUDY    60  55  83 SW3       30.08S
LANGLEY AFB    CLOUDY    59  59 100 W3        30.08S
FORT EUSTIS    CLOUDY    60  55  85 CALM      30.06S
WILLIAMSBURG*  MOCLDY    61  57  88 CALM      30.10R
HR EXEC AP*    NOT AVBL
FRANKLIN*      CLOUDY    57  56  98 S3        30.09S
US460-WAKEFLD  CLOUDY    58  56  93 S5        30.08F
$$

VAZ020-022-025-037-045-220700-
WEST CENTRAL AND SOUTHWEST VIRGINIA

CITY           SKY/WX    TMP DP  RH WIND       PRES   REMARKS
STAUNTON*      FAIR      57  53  85 S5        30.03F
WAYNESBORO*    MOCLDY    55  55  97 E8        30.01F
HOT SPRINGS VA DRZL/FOG  53  53 100 E7        30.04F VSB<1/4
LYNCHBURG      FOG       56  56 100 CALM      30.04F VSB 1/4
DANVILLE       CLOUDY    61  59  93 VRB3      30.03F
SOUTH BOSTON*  CLOUDY    59  58  96 S5        30.05F
MARTINSVILLE   CLOUDY    58  58 100 CALM      30.04F
ROANOKE        CLOUDY    59  57  93 SE8       30.03F
BLACKSBURG     CLOUDY    61  61 100 E7        30.04F
DUBLIN*        CLOUDY    62  60  91 SE3       30.01F
MARION*        CLOUDY    65  59  81 CALM      29.98F
HILLSVILLE*    CLOUDY    59  58  96 S6        30.00F FOG
RICHLANDS*     FAIR      62  53  70 S7G24     29.92F
WISE*          CLOUDY    63  52  67 S12G18    29.90F
ABINGDON*      FAIR      64  55  72 CALM      29.91F
$$

MDZ021>025-VAZ099-100-220700-
SOUTHERN MARYLAND AND THE DELMARVA PENINSULA

CITY           SKY/WX    TMP DP  RH WIND       PRES   REMARKS
PATUXENT RIVER CLOUDY    61  57  87 SE7       30.07S
BAY BRIDGE APT CLOUDY    59  59 100 S5        30.09R
LEONARDTOWN    NOT AVBL
DOVER          CLOUDY    59  57  93 E3        30.07S
GEORGETOWN     CLOUDY    61  58  90 SE3       30.07F
EASTON         LGT RAIN  59  58  96 CALM      30.12F
CAMBRIDGE      CLOUDY    59  59 100 CALM      30.09R FOG
SALISBURY      CLOUDY    60  58  92 CALM      30.07R
TANGIER        NOT AVBL
OCEAN CITY     CLOUDY    61  58  90 E9        30.06F
WALLOPS ISLAND CLOUDY    58  58 100 E6        30.06F
ACCOMACK*      CLOUDY    60  59  98 CALM      30.05F FOG
$$

NCZ012>017-030>032-220700-
NORTH CENTRAL AND EASTERN NORTH CAROLINA

CITY           SKY/WX    TMP DP  RH WIND       PRES   REMARKS
ROANOKE RAPIDS CLOUDY    55  55 100 CALM      30.09S FOG
RALEIGH        CLOUDY    60  59  96 SE6       30.06F
ELIZABETH CITY CLOUDY    60  57  89 CALM      30.08S
AHOSKIE*       DRIZZLE   57  57 100 CALM      30.09F
EDENTON*       CLOUDY    61  60  97 CALM      30.09F FOG
CURRITUCK*     CLOUDY    58  58  99 CALM      30.08S
KILL DEVIL HLS CLOUDY    61  59  92 CALM      30.07S
MANTEO         NOT AVBL
CAPE HATTERAS  CLOUDY    63  60  90 VRB3      30.07F
TARBORO*       CLOUDY    59  58  96 SE5       30.09R
GOLDSBORO      CLOUDY    61  59  92 S3        30.06R
WASHINGTON     CLOUDY    59  58  96 E5        30.08F
GREENVILLE     CLOUDY    61  59  94 E5        30.09F
NEW BERN       CLOUDY    62  60  93 CALM      30.08F
WILMINGTON     CLOUDY    67  64  90 NE6       30.04F
$$

VAZ048-220700-
ELSEWHERE

CITY           SKY/WX    TMP DP  RH WIND       PRES   REMARKS
HARRISBURG PA  CLOUDY    59  54  83 SE9       30.05F
BALTIMORE      CLOUDY    61  56  83 CALM      30.07R
ANNAPOLIS      CLOUDY    61  56  83 SE9       30.08R
ANDREWS AFB    CLOUDY    57  55  90 CALM      30.07R
PHILADELPHIA   CLOUDY    59  55  87 CALM      30.09F
HENDERSON NC   CLOUDY    57  55  94 S6        30.06F
GREENSBORO     CLOUDY    62  60  93 S9        30.01F
ROCKY MOUNT    CLOUDY    61  59  93 CALM      30.07F
$$

VAZ100-220700-
MARINE

STATION/POSITION TIME  TEMP    WIND        PRES    WAVE   SWELL
                       AIR SEA DIR/SP/G            HT/PER HT/PER
                 (UTC) (F)     (DEG/KT/KT) (MB)    (FT/S) (FT/S)
CAPE MAY NJ      0530   60 61   90/  8/ 10 1018.2F
LEWES DE         0524   61 61  110/  9/ 12 1018.4
15NM E FENWICK I 0550   61 64   50/ 10/ 12 1017.6S   7/10   7/10
OCEAN-CITY-INLET 0518   61 63   80/  3/  5 1019.2
44089 WALLOPS IS 0600      65                N/A     4/10   2/11
WACHAPREAGUE VA  0524   61 62  100/  5/  6 1018.1
THOMAS POINT MD  0600   60 63  120/ 12/ 13 1019.3S
GOOSES REEF MD   0530   60     160/ 10/ 12 1019.2S
SOLOMONS ISLAND  0524   61 65  140/ 10/ 11 1018.1
BISHOPS HEAD MD  0518   59 61  140/  4/  5 1018.6
PINEY POINT MD   0524          220/  6/  7   N/A
POTOMAC MD       0554   61 64  130/  8/ 10 1020.8R
CAMBRIDGE MD     0524   59 61  190/  2/  3 1018.6
LEWISETTA VA     0524   59 61  240/  3/  3 1018.4
RAPPAHANNOCK LGT 0524           90/  5/  5 1019.0
STINGRAY PT      0548   61 64  180/  6/  6 1021.7F
YORK RVR RNG VA  0524   61     200/  8/  9 1018.8
YORKTOWN VA      0524   60 65  220/  7/  9 1018.1
JAMESTOWN VA     0554   58 64              1019.2R
DOMINION TERM VA 0524   60     230/  7/  8 1018.7
KIPTOPEKE VA     0524      64  100/  1/  1   N/A
CAPE HENRY VA    0524   61     120/  2/  3 1018.5
WILLOUBY STN VA  0524   61     230/  4/  6 1017.8
S CRANEY ISL VA  0524   60     240/  4/  5 1018.4
CAPE HENRY BUOY  0530      66                N/A     4/10   2/11
1ST LANDING BUOY 0550   62     180/  6/ 10 1018.0F
64NM E OF VA BCH 0550   64 67  330/ 10/ 10 1017.7F   6/10   5/10
DUCK PIER NC     0524   63      CALM  /  4 1018.2
44100 DUCK FRF   0530      69                N/A     5/10   2/11
44056 DUCK FRF   0600      68                N/A     4/ 9   2/11
OREGON INLET NC  0524   63 68  280/  3/  4 1018.4
HATTERAS NC      0524   64 69  330/  7/  7 1018.2
DIAMOND SHLS NC  0550   68 74  330/  6/  8 1017.3F   5/ 9   5/ 9
CAPE LOOKOUT NC  0500   64     350/  8/  9 1018.8F
$$



USA.gov is the U.S. government's official web portal to all federal, state and local government web resources and services.